Time,TemperatureF,DewpointF,PressureIn,WindDirection,WindDirectionDegrees,WindSpeedMPH,WindSpeedGustMPH,Humidity,HourlyPrecipIn,Conditions,Clouds,dailyrainin,SoftwareType,DateUTC
2013-01-13 00:00:00,37.1,36.8,30.12,SW,236,0.0,0.0,99,0.00,,OVC006,0.00,VWS V14.01,2013-01-13 05:00:00,
2013-01-13 00:01:00,37.7,37.5,30.11,SW,236,0.0,0.0,99,0.00,,,0.00,VWS V14.01,2013-01-13 05:01:00,
2013-01-13 00:10:00,37.6,37.3,30.12,SW,236,0.0,0.0,99,0.00,,,0.00,VWS V14.01,2013-01-13 05:10:00,
2013-01-13 00:20:00,37.5,37.2,30.11,SW,236,0.0,0.0,99,0.00,,,0.00,VWS V14.01,2013-01-13 05:20:00,
2013-01-13 00:30:00,37.4,37.2,30.11,SW,236,0.0,0.0,99,0.00,,,0.00,VWS V14.01,2013-01-13 05:30:00,
2013-01-13 00:40:00,37.2,37.0,30.12,SW,236,0.0,0.0,99,0.00,,,0.00,VWS V14.01,2013-01-13 05:40:00,
2013-01-13 00:50:00,36.9,36.7,30.12,SW,236,0.0,0.0,99,0.00,,,0.00,VWS V14.01,2013-01-13 05:50:00,
2013-01-13 01:00:00,38.3,38.3,30.12,East,96,0.0,0.0,100,0.00,,OVC006,0.00,VWS V14.01,2013-01-13 06:00:00,
2013-01-13 01:01:00,37.1,36.8,30.12,SW,236,0.0,0.0,99,0.00,,,0.00,VWS V14.01,2013-01-13 06:01:00,
2013-01-13 01:10:00,37.5,37.2,30.12,SSW,204,0.0,0.0,99,0.00,,,0.00,VWS V14.01,2013-01-13 06:10:00,
2013-01-13 01:20:00,38.1,38.1,30.12,SE,131,0.0,2.0,100,0.00,,,0.00,VWS V14.01,2013-01-13 06:20:00,
2013-01-13 01:30:00,38.2,38.2,30.12,SE,134,0.0,0.0,100,0.00,,,0.00,VWS V14.01,2013-01-13 06:30:00,
2013-01-13 01:40:00,38.4,38.4,30.12,SE,133,0.0,0.0,100,0.00,,,0.00,VWS V14.01,2013-01-13 06:40:00,
2013-01-13 01:50:00,38.3,38.3,30.12,South,176,0.0,0.0,100,0.00,,,0.00,VWS V14.01,2013-01-13 06:50:00,
2013-01-13 02:00:00,37.8,37.5,30.11,East,96,0.0,0.0,99,0.00,,OVC006,0.00,VWS V14.01,2013-01-13 07:00:00,
2013-01-13 02:01:00,38.3,38.3,30.12,East,96,0.0,0.0,100,0.00,,,0.00,VWS V14.01,2013-01-13 07:01:00,
2013-01-13 02:10:00,38.5,38.5,30.12,East,96,0.0,0.0,100,0.00,,,0.00,VWS V14.01,2013-01-13 07:10:00,
2013-01-13 02:20:00,38.2,38.2,30.12,East,96,0.0,0.0,100,0.00,,,0.00,VWS V14.01,2013-01-13 07:20:00,
2013-01-13 02:30:00,37.9,37.6,30.12,East,96,0.0,0.0,99,0.00,,,0.00,VWS V14.01,2013-01-13 07:30:00,
2013-01-13 02:40:00,37.6,37.3,30.12,East,96,0.0,0.0,99,0.00,,,0.00,VWS V14.01,2013-01-13 07:40:00,
2013-01-13 02:50:00,37.9,37.6,30.11,East,96,0.0,0.0,99,0.00,,,0.00,VWS V14.01,2013-01-13 07:50:00,
2013-01-13 03:00:00,37.8,37.5,30.11,East,96,0.0,0.0,99,0.00,,,0.00,VWS V14.01,2013-01-13 08:00:00,
2013-01-13 03:10:00,37.2,37.0,30.12,SW,228,0.0,0.0,99,0.00,,,0.00,VWS V14.01,2013-01-13 08:10:00,
2013-01-13 03:20:00,37.1,36.8,30.10,East,97,0.0,0.0,99,0.00,,,0.00,VWS V14.01,2013-01-13 08:20:00,
2013-01-13 03:30:00,37.2,37.0,30.10,East,94,0.0,0.0,99,0.00,,,0.00,VWS V14.01,2013-01-13 08:30:00,
2013-01-13 03:40:00,37.2,37.0,30.10,East,94,0.0,0.0,99,0.00,,,0.00,VWS V14.01,2013-01-13 08:40:00,
2013-01-13 03:50:00,37.2,37.0,30.09,East,94,0.0,0.0,99,0.00,,,0.00,VWS V14.01,2013-01-13 08:50:00,
2013-01-13 04:00:00,37.0,36.8,30.08,East,95,0.0,0.0,99,0.00,,,0.00,VWS V14.01,2013-01-13 09:00:00,
2013-01-13 04:10:00,37.1,36.8,30.08,East,88,0.0,0.0,99,0.00,,,0.00,VWS V14.01,2013-01-13 09:10:00,
2013-01-13 04:20:00,37.0,36.8,30.09,East,99,0.0,0.0,99,0.00,,,0.00,VWS V14.01,2013-01-13 09:20:00,
2013-01-13 04:30:00,37.0,36.8,30.10,SSE,160,0.0,0.0,99,0.00,,,0.00,VWS V14.01,2013-01-13 09:30:00,
2013-01-13 04:40:00,36.8,36.5,30.09,SE,129,0.0,0.0,99,0.00,,,0.00,VWS V14.01,2013-01-13 09:40:00,
2013-01-13 04:50:00,36.8,36.5,30.09,SW,226,0.0,0.0,99,0.00,,,0.00,VWS V14.01,2013-01-13 09:50:00,
2013-01-13 05:00:00,36.5,36.2,30.10,SW,226,0.0,0.0,99,0.00,,,0.00,VWS V14.01,2013-01-13 10:00:00,
2013-01-13 05:10:00,36.3,36.0,30.11,SW,226,0.0,0.0,99,0.00,,,0.00,VWS V14.01,2013-01-13 10:10:00,
2013-01-13 05:20:00,36.2,36.0,30.11,SW,226,0.0,0.0,99,0.00,,,0.00,VWS V14.01,2013-01-13 10:20:00,
2013-01-13 05:30:00,36.2,36.0,30.11,SW,225,0.0,0.0,99,0.00,,,0.00,VWS V14.01,2013-01-13 10:30:00,
2013-01-13 05:40:00,36.4,36.2,30.11,SW,225,0.0,0.0,99,0.00,,,0.00,VWS V14.01,2013-01-13 10:40:00,
2013-01-13 05:50:00,36.7,36.7,30.10,SW,225,0.0,0.0,100,0.00,,,0.00,VWS V14.01,2013-01-13 10:50:00,
2013-01-13 06:00:00,37.5,37.5,30.10,SE,124,0.0,0.0,100,0.00,,OVC006,0.00,VWS V14.01,2013-01-13 11:00:00,
2013-01-13 06:01:00,36.9,36.9,30.10,SW,225,0.0,0.0,100,0.00,,,0.00,VWS V14.01,2013-01-13 11:01:00,
2013-01-13 06:10:00,36.8,36.8,30.10,SE,145,0.0,0.0,100,0.00,,,0.00,VWS V14.01,2013-01-13 11:10:00,
2013-01-13 06:20:00,37.0,37.0,30.10,SE,124,0.0,0.0,100,0.00,,,0.00,VWS V14.01,2013-01-13 11:20:00,
2013-01-13 06:30:00,37.3,37.3,30.10,SE,124,0.0,0.0,100,0.00,,,0.00,VWS V14.01,2013-01-13 11:30:00,
2013-01-13 06:40:00,37.7,37.7,30.10,SE,124,0.0,0.0,100,0.00,,,0.00,VWS V14.01,2013-01-13 11:40:00,
2013-01-13 06:50:00,37.7,37.7,30.10,ESE,122,0.0,0.0,100,0.00,,,0.00,VWS V14.01,2013-01-13 11:50:00,
2013-01-13 07:00:00,36.5,36.2,30.12,SE,124,0.0,0.0,99,0.00,,OVC006,0.00,VWS V14.01,2013-01-13 12:00:00,
2013-01-13 07:01:00,37.5,37.5,30.10,SE,124,0.0,0.0,100,0.00,,,0.00,VWS V14.01,2013-01-13 12:01:00,
2013-01-13 07:10:00,37.5,37.5,30.10,SE,124,0.0,0.0,100,0.00,,,0.00,VWS V14.01,2013-01-13 12:10:00,
2013-01-13 07:20:00,37.3,37.3,30.11,SE,124,0.0,0.0,100,0.00,,,0.00,VWS V14.01,2013-01-13 12:20:00,
2013-01-13 07:30:00,37.3,37.3,30.11,SE,124,0.0,0.0,100,0.00,,,0.00,VWS V14.01,2013-01-13 12:30:00,
2013-01-13 07:40:00,37.2,37.2,30.11,SE,124,0.0,0.0,100,0.00,,,0.00,VWS V14.01,2013-01-13 12:40:00,
2013-01-13 07:50:00,36.8,36.8,30.12,SE,124,0.0,0.0,100,0.00,,,0.00,VWS V14.01,2013-01-13 12:50:00,
2013-01-13 08:00:00,36.5,36.2,30.12,SE,124,0.0,0.0,99,0.00,,,0.00,VWS V14.01,2013-01-13 13:00:00,
2013-01-13 08:10:00,36.7,36.7,30.12,SE,124,0.0,0.0,100,0.00,,,0.00,VWS V14.01,2013-01-13 13:10:00,
2013-01-13 08:20:00,36.9,36.9,30.11,SE,124,0.0,0.0,100,0.00,,,0.00,VWS V14.01,2013-01-13 13:20:00,
2013-01-13 08:30:00,37.1,37.1,30.12,SE,124,0.0,0.0,100,0.00,,,0.00,VWS V14.01,2013-01-13 13:30:00,
2013-01-13 08:40:00,37.6,37.6,30.12,SE,124,0.0,0.0,100,0.00,,,0.00,VWS V14.01,2013-01-13 13:40:00,
2013-01-13 08:50:00,37.9,37.9,30.12,SE,124,0.0,0.0,100,0.00,,,0.00,VWS V14.01,2013-01-13 13:50:00,
2013-01-13 09:00:00,38.1,38.1,30.13,SE,124,0.0,0.0,100,0.00,,,0.00,VWS V14.01,2013-01-13 14:00:00,
2013-01-13 09:10:00,38.6,38.6,30.12,SE,124,0.0,0.0,100,0.00,,,0.00,VWS V14.01,2013-01-13 14:10:00,
2013-01-13 09:20:00,39.1,39.1,30.12,ESE,122,0.0,0.0,100,0.00,,,0.00,VWS V14.01,2013-01-13 14:20:00,
2013-01-13 09:30:00,39.7,39.7,30.12,SSE,157,0.0,0.0,100,0.00,,,0.00,VWS V14.01,2013-01-13 14:30:00,
2013-01-13 09:40:00,39.9,39.9,30.12,SW,236,0.0,0.0,100,0.00,,,0.00,VWS V14.01,2013-01-13 14:40:00,
2013-01-13 09:50:00,40.1,40.1,30.13,WSW,249,0.0,0.0,100,0.00,,,0.00,VWS V14.01,2013-01-13 14:50:00,
2013-01-13 10:00:00,40.1,40.1,30.13,SW,218,0.0,0.0,100,0.00,,,0.00,VWS V14.01,2013-01-13 15:00:00,
2013-01-13 10:10:00,40.5,40.5,30.13,SW,217,0.0,0.0,100,0.00,,,0.00,VWS V14.01,2013-01-13 15:10:00,
2013-01-13 10:20:00,40.6,40.6,30.12,SW,217,0.0,0.0,100,0.00,,,0.00,VWS V14.01,2013-01-13 15:20:00,
2013-01-13 10:30:00,40.9,40.9,30.13,SW,231,0.0,0.0,100,0.00,,,0.00,VWS V14.01,2013-01-13 15:30:00,
2013-01-13 10:40:00,41.2,41.2,30.13,WSW,243,0.0,2.0,100,0.00,,,0.00,VWS V14.01,2013-01-13 15:40:00,
2013-01-13 10:50:00,41.4,41.4,30.12,SW,217,0.0,3.0,100,0.00,,,0.00,VWS V14.01,2013-01-13 15:50:00,
2013-01-13 11:00:00,42.9,42.9,30.08,South,178,0.0,0.0,100,0.00,,OVC006,0.00,VWS V14.01,2013-01-13 16:00:00,
2013-01-13 11:01:00,41.6,41.6,30.11,SW,219,0.0,0.0,100,0.00,,,0.00,VWS V14.01,2013-01-13 16:01:00,
2013-01-13 11:10:00,42.0,42.0,30.11,SW,217,0.0,1.0,100,0.00,,,0.00,VWS V14.01,2013-01-13 16:10:00,
2013-01-13 11:20:00,42.3,42.3,30.11,SE,133,0.0,1.0,100,0.00,,,0.00,VWS V14.01,2013-01-13 16:20:00,
2013-01-13 11:30:00,42.5,42.5,30.10,WSW,241,0.0,0.0,100,0.00,,,0.00,VWS V14.01,2013-01-13 16:30:00,
2013-01-13 11:40:00,42.5,42.5,30.10,SW,233,0.0,0.0,100,0.00,,,0.00,VWS V14.01,2013-01-13 16:40:00,
2013-01-13 11:50:00,42.7,42.7,30.09,South,177,0.0,0.0,100,0.00,,,0.00,VWS V14.01,2013-01-13 16:50:00,
2013-01-13 12:00:00,42.9,42.9,30.08,South,178,0.0,0.0,100,0.00,,,0.00,VWS V14.01,2013-01-13 17:00:00,
2013-01-13 12:10:00,43.1,43.1,30.07,South,177,0.0,0.0,100,0.00,,,0.00,VWS V14.01,2013-01-13 17:10:00,
2013-01-13 12:20:00,43.3,43.3,30.07,SW,224,0.0,0.0,100,0.00,,,0.00,VWS V14.01,2013-01-13 17:20:00,
2013-01-13 12:30:00,43.4,43.4,30.08,WSW,248,0.0,3.0,100,0.00,,,0.00,VWS V14.01,2013-01-13 17:30:00,
2013-01-13 12:40:00,43.7,43.7,30.07,SW,228,0.0,2.0,100,0.00,,,0.00,VWS V14.01,2013-01-13 17:40:00,
2013-01-13 12:50:00,44.2,44.2,30.07,SW,225,0.0,0.0,100,0.00,,,0.00,VWS V14.01,2013-01-13 17:50:00,
2013-01-13 13:00:00,44.9,44.9,30.02,SW,218,0.0,4.0,100,0.00,,OVC006,0.00,VWS V14.01,2013-01-13 18:00:00,
2013-01-13 13:01:00,44.4,44.4,30.07,SSW,198,0.0,6.0,100,0.00,,,0.00,VWS V14.01,2013-01-13 18:01:00,
2013-01-13 13:10:00,44.7,44.7,30.06,SW,226,2.0,5.0,100,0.00,,,0.00,VWS V14.01,2013-01-13 18:10:00,
2013-01-13 13:20:00,44.8,44.8,30.05,SW,214,0.0,6.0,100,0.00,,,0.00,VWS V14.01,2013-01-13 18:20:00,
2013-01-13 13:30:00,44.4,44.4,30.04,SW,223,3.0,3.0,100,0.00,,OVC006,0.00,VWS V14.01,2013-01-13 18:30:00,
2013-01-13 13:31:00,45.0,45.0,30.04,SSE,162,2.0,4.0,100,0.00,,,0.00,VWS V14.01,2013-01-13 18:31:00,
2013-01-13 13:40:00,45.2,45.2,30.04,SW,218,0.0,3.0,100,0.00,,,0.00,VWS V14.01,2013-01-13 18:40:00,
2013-01-13 13:50:00,45.0,45.0,30.04,SSE,158,4.0,5.0,100,0.00,,,0.00,VWS V14.01,2013-01-13 18:50:00,
2013-01-13 14:00:00,44.9,44.9,30.02,SW,218,0.0,4.0,100,0.00,,,0.00,VWS V14.01,2013-01-13 19:00:00,
2013-01-13 14:10:00,44.7,44.7,30.03,SW,232,3.0,5.0,100,0.00,,,0.00,VWS V14.01,2013-01-13 19:10:00,
2013-01-13 14:20:00,44.7,44.7,30.03,SSW,212,1.0,6.0,100,0.00,,,0.00,VWS V14.01,2013-01-13 19:20:00,
2013-01-13 14:30:00,44.3,44.3,30.03,SSW,205,4.0,4.0,100,0.00,,OVC006,0.00,VWS V14.01,2013-01-13 19:30:00,
2013-01-13 14:31:00,44.4,44.4,30.04,SW,223,3.0,3.0,100,0.00,,,0.00,VWS V14.01,2013-01-13 19:31:00,
2013-01-13 14:40:00,44.3,44.3,30.03,SW,226,0.0,3.0,100,0.00,,,0.00,VWS V14.01,2013-01-13 19:40:00,
2013-01-13 14:50:00,44.3,44.3,30.02,East,98,1.0,3.0,100,0.00,,,0.00,VWS V14.01,2013-01-13 19:50:00,
2013-01-13 15:00:00,44.5,44.5,30.02,ESE,102,0.0,4.0,100,0.00,,OVC006,0.00,VWS V14.01,2013-01-13 20:00:00,
2013-01-13 15:01:00,44.2,44.2,30.03,SSW,203,0.0,7.0,100,0.00,,,0.00,VWS V14.01,2013-01-13 20:01:00,
2013-01-13 15:10:00,44.2,44.2,30.03,WSW,242,3.0,4.0,100,0.00,,,0.00,VWS V14.01,2013-01-13 20:10:00,
2013-01-13 15:20:00,44.2,44.2,30.04,SSW,192,0.0,3.0,100,0.00,,,0.00,VWS V14.01,2013-01-13 20:20:00,
2013-01-13 15:30:00,44.7,44.7,30.01,SSW,208,4.0,6.0,100,0.00,,OVC006,0.00,VWS V14.01,2013-01-13 20:30:00,
2013-01-13 15:31:00,44.3,44.3,30.03,SSW,205,4.0,4.0,100,0.00,,,0.00,VWS V14.01,2013-01-13 20:31:00,
2013-01-13 15:40:00,44.4,44.4,30.02,SSW,205,0.0,4.0,100,0.00,,,0.00,VWS V14.01,2013-01-13 20:40:00,
2013-01-13 15:50:00,44.5,44.5,30.02,SW,228,3.0,5.0,100,0.00,,,0.00,VWS V14.01,2013-01-13 20:50:00,
2013-01-13 16:00:00,44.4,44.4,30.01,SSW,199,0.0,6.0,100,0.00,,OVC006,0.00,VWS V14.01,2013-01-13 21:00:00,
2013-01-13 16:01:00,44.5,44.5,30.02,ESE,102,0.0,4.0,100,0.00,,,0.00,VWS V14.01,2013-01-13 21:01:00,
2013-01-13 16:10:00,44.5,44.5,30.02,SSW,195,1.0,5.0,100,0.00,,OVC034,0.00,VWS V14.01,2013-01-13 21:10:00,
2013-01-13 16:20:00,44.6,44.6,30.01,South,187,0.0,6.0,100,0.00,,OVC034,0.00,VWS V14.01,2013-01-13 21:20:00,
2013-01-13 16:30:00,44.7,44.7,30.01,SSW,208,4.0,6.0,100,0.00,,OVC034,0.00,VWS V14.01,2013-01-13 21:30:00,
2013-01-13 16:40:00,44.5,44.5,30.01,SSW,200,0.0,4.0,100,0.00,,OVC034,0.00,VWS V14.01,2013-01-13 21:40:00,
2013-01-13 16:50:00,44.4,44.4,30.00,South,169,0.0,5.0,100,0.00,,OVC034,0.00,VWS V14.01,2013-01-13 21:50:00,
2013-01-13 17:00:00,44.4,44.4,30.00,SE,146,0.0,2.0,100,0.00,,OVC006,0.00,VWS V14.01,2013-01-13 22:00:00,
2013-01-13 17:01:00,44.4,44.4,30.01,SSW,199,0.0,6.0,100,0.00,,OVC034,0.00,VWS V14.01,2013-01-13 22:01:00,
2013-01-13 17:10:00,44.4,44.4,30.00,West,280,0.0,4.0,100,0.00,,OVC027,0.00,VWS V14.01,2013-01-13 22:10:00,
2013-01-13 17:20:00,44.3,44.3,30.00,WSW,249,0.0,6.0,100,0.00,,OVC027,0.00,VWS V14.01,2013-01-13 22:20:00,
2013-01-13 17:30:00,44.4,44.4,30.01,SE,141,0.0,4.0,100,0.00,,OVC027,0.00,VWS V14.01,2013-01-13 22:30:00,
2013-01-13 17:40:00,44.4,44.4,30.01,SSW,203,1.0,6.0,100,0.00,,OVC027,0.00,VWS V14.01,2013-01-13 22:40:00,
2013-01-13 17:50:00,44.5,44.5,30.00,SW,217,0.0,5.0,100,0.00,,OVC027,0.00,VWS V14.01,2013-01-13 22:50:00,
2013-01-13 18:00:00,44.6,44.6,30.01,ESE,122,0.0,2.0,100,0.00,,OVC006,0.00,VWS V14.01,2013-01-13 23:00:00,
2013-01-13 18:01:00,44.4,44.4,30.00,SE,146,0.0,2.0,100,0.00,,OVC027,0.00,VWS V14.01,2013-01-13 23:01:00,
2013-01-13 18:10:00,44.4,44.4,30.01,SSE,165,0.0,3.0,100,0.00,,OVC006,0.00,VWS V14.01,2013-01-13 23:10:00,
2013-01-13 18:20:00,44.2,43.9,30.02,SSW,212,0.0,1.0,99,0.00,,OVC006,0.00,VWS V14.01,2013-01-13 23:20:00,
2013-01-13 18:30:00,44.4,44.4,30.02,West,263,1.0,3.0,100,0.00,,OVC006,0.00,VWS V14.01,2013-01-13 23:30:00,
2013-01-13 18:40:00,44.5,44.5,30.02,East,101,0.0,2.0,100,0.00,,OVC006,0.00,VWS V14.01,2013-01-13 23:40:00,
2013-01-13 18:50:00,44.5,44.5,30.01,SW,225,0.0,2.0,100,0.00,,OVC006,0.00,VWS V14.01,2013-01-13 23:50:00,
2013-01-13 19:00:00,44.1,44.1,30.02,SSW,203,0.0,0.0,100,0.00,,OVC006,0.00,VWS V14.01,2013-01-14 00:00:00,
2013-01-13 19:01:00,44.6,44.6,30.01,ESE,122,0.0,2.0,100,0.00,,OVC006,0.00,VWS V14.01,2013-01-14 00:01:00,
2013-01-13 19:10:00,44.4,44.4,30.01,SW,222,0.0,0.0,100,0.00,,OVC022,0.00,VWS V14.01,2013-01-14 00:10:00,
2013-01-13 19:20:00,44.3,44.3,30.02,SW,229,0.0,0.0,100,0.00,,OVC022,0.00,VWS V14.01,2013-01-14 00:20:00,
2013-01-13 19:30:00,43.6,43.6,30.02,South,191,0.0,0.0,100,0.01,,OVC006,0.01,VWS V14.01,2013-01-14 00:30:00,
2013-01-13 19:31:00,44.3,44.3,30.02,SSE,160,0.0,3.0,100,0.00,,OVC022,0.00,VWS V14.01,2013-01-14 00:31:00,
2013-01-13 19:40:00,44.2,44.2,30.02,SSW,210,0.0,0.0,100,0.00,,OVC022,0.00,VWS V14.01,2013-01-14 00:40:00,
2013-01-13 19:50:00,44.3,44.3,30.01,SSW,203,0.0,0.0,100,0.00,,OVC022,0.00,VWS V14.01,2013-01-14 00:50:00,
2013-01-13 20:00:00,44.1,44.1,30.02,SSW,203,0.0,0.0,100,0.00,,OVC022,0.00,VWS V14.01,2013-01-14 01:00:00,
2013-01-13 20:10:00,43.9,43.9,30.02,SSW,203,0.0,0.0,100,0.00,,,0.00,VWS V14.01,2013-01-14 01:10:00,
2013-01-13 20:20:00,43.7,43.7,30.01,SSW,201,0.0,0.0,100,0.01,,,0.01,VWS V14.01,2013-01-14 01:20:00,
2013-01-13 20:30:00,43.6,43.6,30.02,South,191,0.0,0.0,100,0.01,,,0.01,VWS V14.01,2013-01-14 01:30:00,
2013-01-13 20:40:00,43.7,43.7,30.01,SW,214,0.0,2.0,100,0.01,,,0.01,VWS V14.01,2013-01-14 01:40:00,
2013-01-13 20:50:00,43.6,43.6,30.01,SSE,155,0.0,0.0,100,0.01,,,0.01,VWS V14.01,2013-01-14 01:50:00,
2013-01-13 21:00:00,43.6,43.6,29.99,SSE,148,0.0,0.0,100,0.00,,OVC006,0.01,VWS V14.01,2013-01-14 02:00:00,
2013-01-13 21:01:00,43.6,43.6,30.00,SSW,212,0.0,1.0,100,0.01,,,0.01,VWS V14.01,2013-01-14 02:01:00,
2013-01-13 21:10:00,43.7,43.7,30.00,ESE,111,0.0,3.0,100,0.01,,,0.01,VWS V14.01,2013-01-14 02:10:00,
2013-01-13 21:20:00,43.7,43.7,29.99,SW,235,0.0,0.0,100,0.01,,,0.01,VWS V14.01,2013-01-14 02:20:00,
2013-01-13 21:30:00,43.7,43.7,29.99,SSW,200,0.0,1.0,100,0.00,,,0.01,VWS V14.01,2013-01-14 02:30:00,
2013-01-13 21:40:00,43.7,43.7,29.99,SW,225,0.0,0.0,100,0.00,,,0.01,VWS V14.01,2013-01-14 02:40:00,
2013-01-13 21:50:00,43.5,43.5,29.99,SE,145,0.0,0.0,100,0.00,,,0.01,VWS V14.01,2013-01-14 02:50:00,
2013-01-13 22:00:00,43.6,43.6,29.99,SSE,148,0.0,0.0,100,0.00,,,0.01,VWS V14.01,2013-01-14 03:00:00,
2013-01-13 22:10:00,43.7,43.7,29.98,SSE,148,0.0,0.0,100,0.00,,,0.01,VWS V14.01,2013-01-14 03:10:00,
2013-01-13 22:20:00,43.8,43.8,29.98,SSW,204,0.0,0.0,100,0.00,,,0.01,VWS V14.01,2013-01-14 03:20:00,
2013-01-13 22:30:00,43.7,43.7,29.98,SW,233,0.0,1.0,100,0.00,,,0.01,VWS V14.01,2013-01-14 03:30:00,
2013-01-13 22:40:00,43.5,43.5,29.99,East,101,0.0,0.0,100,0.00,,,0.01,VWS V14.01,2013-01-14 03:40:00,
2013-01-13 22:50:00,43.6,43.6,29.99,SW,222,0.0,0.0,100,0.00,,,0.01,VWS V14.01,2013-01-14 03:50:00,
2013-01-13 23:00:00,43.9,43.9,29.97,SSW,208,0.0,0.0,100,0.00,,OVC006,0.00,VWS V14.01,2013-01-14 04:00:00,
2013-01-13 23:01:00,43.5,43.5,29.99,SSW,201,0.0,0.0,100,0.00,,,0.01,VWS V14.01,2013-01-14 04:01:00,
2013-01-13 23:10:00,43.5,43.5,29.99,SSW,211,0.0,0.0,100,0.00,,,0.01,VWS V14.01,2013-01-14 04:10:00,
2013-01-13 23:20:00,43.7,43.7,29.98,SE,145,0.0,3.0,100,0.00,,,0.01,VWS V14.01,2013-01-14 04:20:00,
2013-01-13 23:30:00,43.9,43.9,29.98,WSW,257,0.0,0.0,100,0.00,,,0.01,VWS V14.01,2013-01-14 04:30:00,
2013-01-13 23:40:00,44.0,44.0,29.98,WSW,245,0.0,2.0,100,0.00,,,0.01,VWS V14.01,2013-01-14 04:40:00,
2013-01-13 23:50:00,43.9,43.9,29.98,SSW,208,0.0,1.0,100,0.00,,,0.01,VWS V14.01,2013-01-14 04:50:00,